DW6197 Weather Reports


time (UTC)temp
C
wind
direction
speed
KPH
gust
KPH
rain 1hr
cm
rain 24hr
cm
rain mn
cm
humidity
%
barometer
mb
20260504034540 6 119 0.0 0.0 0.00 0.00 0.00 82 1004.1
20260504033040 6 120 0.0 0.0 0.00 0.00 0.00 80 1004.1
20260504031539 6 120 0.0 0.0 0.00 0.00 0.00 79 1004.2
20260504030042 7 119 0.0 0.0 0.00 0.00 0.00 77 1004.1
20260504024538 7 120 0.0 0.0 0.00 0.00 0.00 75 1004.2
20260504023038 8 120 0.0 0.0 0.00 0.00 0.00 73 1004.1
20260504021538 9 120 0.0 0.0 0.00 0.00 0.00 68 1003.8
20260504020036 10 120 0.0 0.0 0.00 0.00 0.00 67 1003.8
20260504014549 10 120 0.0 0.0 0.00 0.00 0.00 64 1003.5
20260504013041 10 119 0.0 0.0 0.00 0.00 0.00 60 1003.5
20260504011536 11 120 0.0 0.0 0.00 0.00 0.00 61 1003.3
20260504010034 11 120 0.0 0.0 0.00 0.00 0.00 58 1003.2
20260504004535 12 120 0.0 0.0 0.00 0.00 0.00 55 1002.9
20260504003034 13 120 0.0 0.0 0.00 0.00 0.00 48 1002.8
20260504001542 15 120 0.0 0.0 0.00 0.00 0.00 43 1002.8
20260504000041 15 120 0.0 1.6 0.00 0.00 0.00 37 1002.7
20260503234533 16 120 0.0 3.2 0.00 0.00 0.00 35 1002.5
20260503233032 16 120 0.0 0.0 0.00 0.00 0.00 33 1002.4
20260503231536 17 120 0.0 1.6 0.00 0.00 0.00 33 1002.3
20260503230032 17 119 0.0 0.0 0.00 0.00 0.00 33 1002.3
20260503224537 17 119 0.0 4.8 0.00 0.00 0.00 30 1002.3
20260503223030 17 293 0.0 8.0 0.00 0.00 0.00 32 1002.2
20260503221532 18 279 0.0 6.4 0.00 0.00 0.00 32 1002.2
20260503220029 18 319 0.0 4.8 0.00 0.00 0.00 30 1002.3
20260503214532 18 138 0.0 3.2 0.00 0.00 0.00 32 1002.2
20260503213032 19 119 0.0 8.0 0.00 0.00 0.00 34 1002.3
20260503211524 18 255 0.0 6.4 0.00 0.00 0.00 37 1002.5
20260503210038 18 326 0.0 6.4 0.00 0.00 0.00 43 1002.6
20260503204520 18 46 3.2 12.9 0.00 0.00 0.00 41 1002.7
20260503203019 17 355 0.0 12.9 0.00 0.00 0.00 42 1002.9
20260503201522 17 328 0.0 11.3 0.00 0.00 0.00 39 1003.1
20260503200018 17 167 3.2 11.3 0.00 0.00 0.00 40 1003.4
20260503194516 17 351 0.0 11.3 0.00 0.00 0.00 41 1003.7
20260503193016 17 97 1.6 11.3 0.00 0.00 0.00 44 1003.9
20260503191515 17 126 3.2 8.0 0.00 0.00 0.00 40 1004.2
20260503190013 17 263 0.0 8.0 0.00 0.00 0.00 42 1004.5
20260503184515 17 155 0.0 8.0 0.00 0.00 0.00 43 1004.5
20260503183010 17 164 3.2 8.0 0.00 0.00 0.00 44 1004.7
20260503181507 16 117 1.6 4.8 0.00 0.00 0.00 44 1004.9
20260503180005 15 44 1.6 8.0 0.00 0.00 0.00 43 1005.0
20260503174503 16 304 1.6 8.0 0.00 0.00 0.00 41 1005.2
20260503173002 15 321 3.2 9.7 0.00 0.00 0.00 42 1005.4
20260503171600 15 295 0.0 4.8 0.00 0.00 0.00 50 1005.7
20260503130108 6 33 0.0 1.6 0.00 0.00 0.00 87 1006.9
20260503081505 1 34 0.0 0.0 0.00 0.00 0.00 93 1003.8
20260503071554 2 34 0.0 0.0 0.00 0.00 0.00 92 1003.3
20260503054540 5 34 0.0 0.0 0.00 0.00 0.00 86 1002.9
20260503053039 5 34 0.0 0.0 0.00 0.00 0.00 86 1003.0
20260503051538 5 34 0.0 0.0 0.00 0.00 0.00 85 1003.2
20260503050038 5 34 0.0 0.0 0.00 0.00 0.00 85 1003.1
20260503044541 5 34 0.0 1.6 0.00 0.00 0.00 85 1002.9
20260503043034 5 34 0.0 0.0 0.00 0.00 0.00 84 1002.8
20260503041538 5 34 0.0 0.0 0.00 0.00 0.00 84 1002.7
20260503040030 5 34 0.0 0.0 0.00 0.00 0.00 83 1002.5